{"data":{"norad_id":64848,"epoch":"2026-05-25T03:20:16.778976Z","epoch_age_seconds":62894,"freshness":"FRESH","line1":"1 64848U 25152G   26145.13908309  .00004338  00000+0  30447-3 0  9994","line2":"2 64848  97.4515   0.5229 0001703  94.9271 265.2150 15.05658367 46922","mean_motion":15.05658367,"eccentricity":0.0001703,"inclination_deg":97.4515,"raan_deg":0.5229,"arg_perigee_deg":94.9271,"mean_anomaly_deg":265.215,"bstar":0.00030447,"rev_number":4692,"period_min":95.639225441903,"perigee_km":548.30571510507,"apogee_km":550.66526332489,"semimajor_km":6927.622489215,"source":"CELESTRAK","updated_at":"2026-05-25T13:38:20.612752Z"}}